Location: Dammartin
(48.9032°N, 1.6195°E)
Time: 08:10:37
(UTC+00:00)

VELOX 1 - Pass Details

Date: 05 December 2023
Orbit: 608 x 622 km, 98.4° (Epoch: 24 February)

Event Time Altitude Azimuth Distance (km) Brightness Sun altitude
Rises 06:48:47 0° 183° (S) 2,857 ? -6.7°
Reaches altitude 10° 06:51:03 10° 190° (S) 1,957 ? -6.4°
Maximum altitude 06:55:04 40° 261° (W) 897 ? -5.8°
Drops below altitude 10° 06:59:07 10° 332° (NNW) 1,973 ? -5.2°
Sets 07:01:25 0° 340° (NNW) 2,884 ? -4.9°
